#timestamp,LO_Frequency,Hit,StdDev 
1604790015.5,286047004.8,N
1604790035.4,286047009.9,N
1604790055.2,286047013.9,Y
1604790075.1,286047018.1,P
1604790076.0,286047018.1,N
1604790095.8,286047019.8,N
1604790115.6,286047019.5,N
1604790135.5,286047023.2,N
1604790155.3,286047026.6,Y
1604790175.2,286047012.0,P
1604790195.9,286047013.3,P
1604790215.7,286047012.5,P
1604790235.6,286047016.4,Y
1604790255.4,286047003.7,P
1604790275.2,286047008.8,N
1604790295.1,286047010.5,N
1604790296.0,286047010.5,N
1604790315.8,286047007.1,N
1604790335.7,286047008.3,N
1604790355.5,286047010.1,Y
1604790375.3,286046997.7,P
1604790395.2,286046997.3,N
1604790415.0,286046995.4,N
1604790415.9,286046995.4,N
1604790435.7,286046996.9,N
1604790455.6,286047001.1,N
1604790475.4,286047000.9,N
1604790495.3,286047000.4,N
1604790515.1,286047001.0,N
1604790516.0,286047001.0,N
1604790535.8,286047003.9,N
1604790555.7,286047003.5,N
1604790575.5,286047002.4,N
1604790595.3,286047000.2,N
1604790615.2,286046998.1,N
1604790635.0,286046999.7,N
1604790635.9,286046999.7,N
1604790655.8,286047000.1,N
1604790675.6,286047003.8,N
1604790695.4,286047004.6,N
1604790715.3,286047004.9,N
1604790735.1,286047005.0,N
1604790755.9,286047001.6,N
1604790775.7,286046997.8,N
1604790795.5,286046996.0,N
1604790815.4,286046992.1,N
1604790835.2,286046994.3,N
1604790855.0,286046990.6,N
1604790855.9,286046990.6,N
1604790875.8,286046991.9,N
1604790895.6,286046993.8,N
1604790915.5,286046992.1,N
1604790935.3,286046990.0,N
1604790955.1,286046986.1,Y
1604790975.9,286046989.4,P
1604790995.7,286046989.5,N
1604791015.5,286046985.4,P
1604791035.4,286046987.9,N
1604791055.2,286046987.2,N
1604791075.1,286046988.9,N
1604791076.0,286046988.9,N
1604791095.8,286046991.2,N
1604791115.6,286046992.5,N
1604791135.5,286046992.9,N
1604791155.3,286046994.1,N
1604791175.1,286046994.7,N
1604791195.9,286046991.3,N
1604791215.7,286046990.1,N
1604791235.6,286046990.8,N
1604791255.4,286046987.5,Y
1604791275.2,286047000.7,P
1604791295.1,286046999.9,N
1604791296.0,286046999.9,N
1604791315.8,286047000.5,N
1604791335.7,286046995.3,N
1604791355.5,286046995.9,N
1604791375.3,286046993.3,N
1604791395.2,286046994.0,N
1604791415.9,286046990.3,N
1604791435.7,286046990.0,N
1604791455.6,286046991.8,N
1604791475.4,286046990.6,N
1604791495.3,286046994.2,N
1604791515.1,286046995.2,N
1604791516.0,286046995.2,N
1604791535.8,286046991.2,N
1604791555.7,286046988.9,Y
1604791575.5,286046992.6,P
1604791595.4,286046998.0,N
1604791615.2,286046995.9,N
1604791635.0,286046995.2,N
1604791635.9,286046995.2,N
1604791655.8,286046994.5,Y
1604791675.6,286047000.9,P
1604791695.4,286047005.0,N
1604791715.3,286047006.2,N
1604791735.1,286047008.9,N
1604791755.9,286047004.6,N
1604791775.7,286047003.4,N
1604791795.5,286047003.1,N
1604791815.4,286047005.3,N
1604791835.2,286046999.4,N
1604791855.1,286046999.2,N
1604791856.0,286046999.2,N
1604791875.8,286046998.5,N
1604791895.6,286046998.1,N
1604791915.5,286047002.8,N
1604791935.3,286046999.6,N
1604791955.2,286047004.0,N
1604791975.0,286047012.4,Y
1604791975.9,286047012.4,P
1604791995.8,286047010.8,N
1604792015.6,286047010.5,N
1604792035.4,286047011.5,N
1604792055.3,286047015.0,Y
1604792075.1,286047000.1,P
1604792095.9,286047002.2,N
1604792115.7,286047004.9,N
1604792135.5,286047045.5,Y
1604792155.4,286046972.3,P
1604792175.2,286047001.2,N
1604792195.1,286046999.5,N
1604792196.0,286046999.5,N
1604792215.8,286046993.8,N
1604792235.6,286046995.9,N
1604792255.5,286046996.7,N
1604792275.3,286046999.7,N
1604792295.2,286047002.6,N
1604792315.9,286046995.4,N
1604792335.7,286046993.4,N
1604792355.6,286046997.9,N
1604792375.4,286047001.2,N
1604792395.2,286046999.5,N
1604792415.1,286046997.3,N
1604792416.0,286046997.3,N
1604792435.8,286046996.1,N
1604792455.7,286047001.0,N
1604792475.5,286046998.3,N
1604792495.3,286047001.9,N
1604792515.2,286047002.8,N
1604792535.0,286047002.2,N
1604792535.9,286047002.2,N
1604792555.8,286047001.3,N
1604792575.6,286047001.6,N
1604792595.4,286047004.8,N
1604792615.3,286047008.2,N
1604792635.1,286047010.5,N
1604792655.9,286047008.1,N
1604792675.7,286047006.4,N
1604792695.5,286047010.7,N
1604792715.4,286047011.7,N
1604792735.2,286047016.7,Y
1604792755.0,286047011.0,P
1604792756.0,286047011.0,N
1604792775.8,286047011.3,N
1604792795.6,286047010.9,N
1604792815.5,286047012.3,Y
1604792835.3,286047004.7,P
1604792855.1,286047002.2,N
1604792875.9,286047001.8,N
1604792895.7,286047001.3,N
1604792915.6,286047004.6,N
1604792935.4,286047005.0,N
1604792955.2,286047003.2,N
1604792975.1,286047006.3,N
1604792976.0,286047006.3,N
1604792995.8,286047002.9,N
1604793015.7,286047004.0,N
1604793035.5,286047007.9,Y
1604793055.3,286047006.9,P
1604793075.2,286047006.9,P
1604793095.0,286047008.2,P
1604793095.9,286047008.2,Y
1604793115.7,286047004.8,P
1604793135.6,286047010.4,P
1604793155.4,286047009.4,P
1604793175.3,286047015.2,Y
1604793195.1,286047003.6,P
1604793215.8,286047004.0,N
1604793235.7,286047001.3,N
1604793255.5,286047000.7,N
1604793275.4,286046999.3,N
1604793295.2,286046996.4,N
1604793315.0,286046995.3,N
1604793315.9,286046995.3,N
1604793335.8,286046993.0,N
1604793355.6,286046991.0,N
1604793375.4,286046991.9,N
1604793395.3,286046993.0,N
1604793415.1,286046993.0,N
1604793435.9,286046993.0,N
1604793485.7,286046996.0,E
1604793495.6,286046999.1,N
1604793515.5,286046996.4,P
1604793535.3,286046992.7,P
1604793555.2,286046994.4,N
1604793575.9,286046994.5,N
1604793595.7,286046995.9,N
